QPF
0.00 0.00 0.00 0.01 0.01 0.01 0.01 0.01 0.01 0.01 0.01 0.02 0.02 0.02 0.01 0.01 0.01 0.01 0.01 0.02 0.02 0.02 0.02 0.04 0.04 0.03 0.03 0.02 0.01 0.01 0.01 0.01 0.01 0.01 0.01 0.01 0.01 0.01 0.01 0.01 0.01 0.01 0.01
0.00 0.00 0.01 0.01 0.01 0.01 0.01 0.01 0.01 0.01 0.01 0.01 0.01 0.02 0.02 0.02 0.01 0.01 0.01 0.02 0.02 0.01 0.01 0.03 0.04 0.04 0.03 0.03 0.02 0.02 0.01 0.01 0.01 0.01 0.01 0.01 0.01 0.00 0.00 0.00 0.01 0.01 0.01
0.00 0.00 0.00 0.00 0.01 0.01 0.00 0.01 0.01 0.01 0.01 0.01 0.02 0.01 0.02 0.02 0.02 0.03 0.02 0.02 0.02 0.01 0.01 0.02 0.03 0.03 0.04 0.03 0.03 0.02 0.01 0.01 0.01 0.01 0.00 0.01 0.01 0.01 0.00 0.00 0.00 0.01 0.01
0.01 0.00 0.00 0.00 0.01 0.01 0.01 0.01 0.01 0.01 0.01 0.01 0.01 0.02 0.01 0.02 0.02 0.02 0.02 0.02 0.02 0.01 0.01 0.02 0.03 0.03 0.03 0.02 0.02 0.02 0.01 0.01 0.01 0.00 0.00 0.01 0.01 0.01 0.01 0.00 0.00 0.01 0.01
0.01 0.01 0.01 0.01 0.01 0.00 0.00 0.00 0.01 0.01 0.01 0.01 0.01 0.02 0.02 0.02 0.02 0.02 0.02 0.02 0.02 0.01 0.01 0.01 0.02 0.03 0.04 0.03 0.02 0.01 0.01 0.01 0.01 0.00 0.00 0.01 0.01 0.01 0.01 0.01 0.01 0.01 0.01
0.01 0.01 0.01 0.01 0.01 0.01 0.01 0.01 0.01 0.01 0.01 0.01 0.01 0.02 0.03 0.02 0.02 0.02 0.02 0.02 0.02 0.02 0.02 0.02 0.02 0.02 0.03 0.02 0.02 0.01 0.01 0.00 0.01 0.01 0.01 0.01 0.02 0.02 0.02 0.02 0.01 0.01 0.01
0.01 0.01 0.01 0.01 0.01 0.01 0.01 0.01 0.01 0.02 0.02 0.01 0.01 0.01 0.02 0.04 0.04 0.04 0.03 0.02 0.02 0.01 0.01 0.01 0.01 0.02 0.02 0.01 0.01 0.02 0.01 0.01 0.01 0.01 0.02 0.02 0.02 0.02 0.02 0.02 0.03 0.03 0.01
0.01 0.01 0.01 0.01 0.01 0.01 0.01 0.02 0.02 0.02 0.02 0.02 0.01 0.01 0.02 0.03 0.04 0.05 0.04 0.02 0.01 0.01 0.01 0.01 0.01 0.01 0.01 0.01 0.01 0.02 0.02 0.01 0.00 0.01 0.01 0.01 0.02 0.02 0.03 0.03 0.03 0.03 0.02
0.01 0.01 0.01 0.01 0.01 0.01 0.01 0.01 0.01 0.01 0.01 0.01 0.01 0.01 0.01 0.02 0.02 0.02 0.03 0.03 0.01 0.01 0.01 0.00 0.01 0.01 0.01 0.01 0.01 0.01 0.02 0.01 0.00 0.01 0.01 0.01 0.01 0.01 0.02 0.02 0.03 0.03 0.03
0.00 0.01 0.01 0.01 0.01 0.01 0.01 0.01 0.01 0.01 0.01 0.01 0.01 0.02 0.01 0.00 0.00 0.00 0.01 0.01 0.01 0.01 0.01 0.00 0.01 0.01 0.01 0.01 0.01 0.01 0.01 0.01 0.01 0.02 0.02 0.01 0.01 0.01 0.01 0.01 0.02 0.03 0.02
0.00 0.01 0.02 0.02 0.02 0.02 0.02 0.01 0.01 0.01 0.01 0.01 0.01 0.02 0.01 0.01 0.01 0.01 0.00 0.00 0.01 0.01 0.00 0.01 0.00 0.01 0.01 0.01 0.01 0.00 0.01 0.01 0.01 0.02 0.04 0.02 0.02 0.01 0.01 0.02 0.03 0.03 0.03
0.01 0.01 0.02 0.03 0.03 0.03 0.03 0.02 0.02 0.02 0.02 0.01 0.01 0.01 0.01 0.02 0.03 0.02 0.02 0.01 0.00 0.00 0.00 0.01 0.00 0.01 0.01 0.01 0.01 0.01 0.01 0.01 0.02 0.02 0.03 0.02 0.01 0.01 0.01 0.01 0.01 0.02 0.02
0.01 0.01 0.01 0.01 0.02 0.03 0.03 0.03 0.03 0.03 0.02 0.02 0.01 0.01 0.01 0.02 0.01 0.01 0.02 0.02 0.01 0.01 0.01 0.01 0.00 0.00 0.01 0.01 0.01 0.01 0.01 0.01 0.02 0.02 0.01 0.01 0.01 0.01 0.01 0.01 0.01 0.02 0.02
0.01 0.01 0.01 0.01 0.01 0.03 0.03 0.03 0.03 0.03 0.03 0.03 0.02 0.01 0.01 0.01 0.01 0.01 0.01 0.01 0.02 0.02 0.02 0.01 0.01 0.00 0.01 0.01 0.01 0.02 0.01 0.01 0.01 0.01 0.01 0.00 0.00 0.01 0.01 0.01 0.02 0.02 0.02
0.00 0.01 0.01 0.01 0.01 0.01 0.02 0.02 0.02 0.02 0.02 0.01 0.02 0.01 0.01 0.01 0.00 0.00 0.00 0.00 0.01 0.01 0.02 0.02 0.02 0.01 0.01 0.01 0.01 0.01 0.01 0.01 0.01 0.01 0.01 0.00 0.00 0.00 0.00 0.00 0.01 0.02 0.03
0.00 0.01 0.00 0.00 0.01 0.01 0.01 0.02 0.02 0.02 0.02 0.02 0.02 0.02 0.01 0.00 0.00 0.00 0.00 0.00 0.00 0.01 0.01 0.02 0.02 0.02 0.02 0.02 0.02 0.02 0.01 0.01 0.01 0.01 0.01 0.01 0.00 0.00 0.00 0.00 0.01 0.02 0.03
0.00 0.00 0.00 0.00 0.00 0.00 0.01 0.01 0.01 0.02 0.02 0.02 0.02 0.02 0.02 0.01 0.00 0.00 0.00 0.00 0.00 0.00 0.00 0.01 0.02 0.02 0.02 0.02 0.02 0.03 0.02 0.02 0.01 0.01 0.01 0.01 0.01 0.00 0.00 0.00 0.00 0.01 0.02
0.00 0.00 0.00 0.00 0.00 0.00 0.00 0.00 0.01 0.01 0.02 0.02 0.02 0.02 0.03 0.02 0.00 0.00 0.00 0.00 0.00 0.00 0.00 0.00 0.01 0.01 0.01 0.02 0.02 0.02 0.02 0.02 0.02 0.01 0.01 0.01 0.01 0.01 0.00 0.00 0.00 0.01 0.01
0.00 0.00 0.00 0.00 0.00 0.00 0.00 0.00 0.00 0.01 0.02 0.01 0.02 0.02 0.02 0.02 0.01 0.01 0.00 0.00 0.00 0.00 0.00 0.00 0.00 0.01 0.01 0.01 0.01 0.01 0.01 0.01 0.01 0.01 0.01 0.02 0.02 0.02 0.02 0.01 0.01 0.01 0.01
0.00 0.00 0.00 0.00 0.00 0.00 0.00 0.00 0.01 0.01 0.02 0.02 0.01 0.02 0.02 0.02 0.02 0.01 0.01 0.00 0.00 0.00 0.00 0.00 0.00 0.00 0.01 0.01 0.01 0.01 0.01 0.01 0.01 0.01 0.01 0.01 0.02 0.03 0.03 0.03 0.02 0.01 0.01
0.00 0.00 0.00 0.00 0.00 0.00 0.00 0.00 0.00 0.01 0.02 0.02 0.02 0.01 0.02 0.02 0.01 0.01 0.01 0.01 0.00 0.00 0.00 0.00 0.00 0.00 0.00 0.01 0.01 0.01 0.01 0.01 0.01 0.01 0.01 0.01 0.01 0.01 0.02 0.02 0.03 0.02 0.02
0.00 0.00 0.00 0.00 0.00 0.00 0.00 0.00 0.00 0.01 0.02 0.02 0.02 0.02 0.02 0.02 0.01 0.01 0.01 0.01 0.01 0.00 0.00 0.00 0.00 0.00 0.00 0.00 0.01 0.01 0.01 0.01 0.01 0.01 0.01 0.01 0.01 0.01 0.01 0.01 0.02 0.02 0.03
0.00 0.00 0.00 0.00 0.00 0.00 0.00 0.00 0.00 0.01 0.02 0.03 0.04 0.03 0.02 0.02 0.01 0.01 0.01 0.01 0.01 0.01 0.01 0.00 0.00 0.00 0.00 0.00 0.01 0.01 0.02 0.02 0.02 0.02 0.01 0.01 0.01 0.01 0.01 0.01 0.01 0.02 0.02
0.00 0.00 0.00 0.00 0.00 0.00 0.00 0.00 0.00 0.01 0.02 0.03 0.03 0.03 0.03 0.02 0.02 0.01 0.01 0.01 0.01 0.01 0.01 0.01 0.01 0.01 0.00 0.00 0.01 0.01 0.02 0.02 0.03 0.03 0.03 0.03 0.03 0.02 0.02 0.02 0.01 0.01 0.02
0.00 0.00 0.00 0.00 0.00 0.00 0.00 0.00 0.00 0.01 0.01 0.03 0.04 0.04 0.03 0.03 0.02 0.01 0.01 0.01 0.01 0.02 0.01 0.01 0.01 0.01 0.01 0.00 0.01 0.01 0.02 0.02 0.02 0.02 0.02 0.02 0.02 0.03 0.03 0.02 0.02 0.02 0.03
0.00 0.00 0.00 0.00 0.00 0.00 0.00 0.00 0.00 0.01 0.01 0.03 0.04 0.04 0.03 0.03 0.02 0.01 0.01 0.01 0.01 0.01 0.01 0.01 0.01 0.01 0.01 0.01 0.01 0.01 0.01 0.01 0.01 0.01 0.01 0.01 0.01 0.02 0.02 0.03 0.03 0.05 0.06
MSLP
1009.66 1009.66 1009.65 1009.71 1009.85 1010.09 1010.40 1010.74 1011.08 1011.37 1011.60 1011.78 1011.93 1012.07 1012.21 1012.38 1012.56 1012.74 1012.91 1013.04 1013.13 1013.18 1013.20 1013.22 1013.25 1013.31 1013.38 1013.47 1013.56 1013.64 1013.69 1013.72 1013.74 1013.76 1013.78 1013.81 1013.85 1013.89 1013.93 1013.96 1013.97 1013.98 1013.98
1009.79 1009.82 1009.86 1009.97 1010.16 1010.43 1010.76 1011.09 1011.40 1011.67 1011.88 1012.04 1012.19 1012.34 1012.50 1012.68 1012.86 1013.03 1013.17 1013.27 1013.33 1013.36 1013.37 1013.38 1013.41 1013.46 1013.53 1013.59 1013.64 1013.67 1013.68 1013.66 1013.64 1013.64 1013.65 1013.69 1013.75 1013.81 1013.87 1013.91 1013.93 1013.94 1013.94
1009.89 1009.95 1010.05 1010.23 1010.48 1010.80 1011.14 1011.48 1011.77 1012.01 1012.20 1012.36 1012.50 1012.65 1012.82 1013.00 1013.18 1013.33 1013.44 1013.51 1013.53 1013.53 1013.53 1013.54 1013.56 1013.61 1013.67 1013.71 1013.72 1013.70 1013.65 1013.59 1013.53 1013.50 1013.51 1013.55 1013.62 1013.70 1013.78 1013.84 1013.87 1013.89 1013.90
1009.95 1010.06 1010.23 1010.48 1010.81 1011.18 1011.55 1011.89 1012.17 1012.39 1012.56 1012.71 1012.85 1013.01 1013.18 1013.36 1013.52 1013.65 1013.73 1013.76 1013.75 1013.73 1013.71 1013.71 1013.73 1013.77 1013.81 1013.83 1013.81 1013.75 1013.65 1013.54 1013.45 1013.39 1013.38 1013.41 1013.49 1013.58 1013.67 1013.74 1013.79 1013.82 1013.84
1009.99 1010.15 1010.40 1010.73 1011.13 1011.56 1011.96 1012.31 1012.58 1012.78 1012.94 1013.07 1013.21 1013.38 1013.56 1013.74 1013.90 1014.01 1014.06 1014.06 1014.02 1013.97 1013.93 1013.92 1013.94 1013.97 1013.99 1013.98 1013.92 1013.82 1013.68 1013.53 1013.40 1013.32 1013.29 1013.31 1013.38 1013.46 1013.55 1013.62 1013.68 1013.71 1013.75
1010.04 1010.26 1010.58 1011.00 1011.47 1011.95 1012.38 1012.73 1012.99 1013.17 1013.31 1013.44 1013.58 1013.76 1013.95 1014.14 1014.30 1014.41 1014.44 1014.42 1014.35 1014.28 1014.22 1014.20 1014.19 1014.21 1014.20 1014.16 1014.07 1013.93 1013.76 1013.58 1013.42 1013.31 1013.26 1013.26 1013.31 1013.38 1013.45 1013.51 1013.55 1013.59 1013.63
1010.12 1010.41 1010.81 1011.31 1011.84 1012.36 1012.80 1013.14 1013.38 1013.54 1013.66 1013.78 1013.94 1014.13 1014.34 1014.55 1014.72 1014.82 1014.85 1014.81 1014.73 1014.65 1014.57 1014.52 1014.50 1014.48 1014.45 1014.38 1014.25 1014.08 1013.88 1013.68 1013.50 1013.37 1013.31 1013.29 1013.31 1013.35 1013.39 1013.41 1013.44 1013.46 1013.49
1010.26 1010.62 1011.10 1011.66 1012.25 1012.78 1013.21 1013.54 1013.75 1013.88 1013.99 1014.11 1014.27 1014.48 1014.71 1014.93 1015.12 1015.23 1015.26 1015.23 1015.14 1015.04 1014.95 1014.88 1014.83 1014.78 1014.72 1014.61 1014.45 1014.26 1014.04 1013.83 1013.64 1013.52 1013.44 1013.41 1013.41 1013.41 1013.41 1013.39 1013.37 1013.36 1013.37
1010.45 1010.89 1011.44 1012.06 1012.66 1013.19 1013.61 1013.90 1014.08 1014.18 1014.28 1014.39 1014.57 1014.79 1015.04 1015.28 1015.48 1015.61 1015.65 1015.62 1015.53 1015.43 1015.33 1015.24 1015.16 1015.08 1014.98 1014.84 1014.66 1014.45 1014.23 1014.02 1013.85 1013.74 1013.67 1013.64 1013.61 1013.59 1013.54 1013.47 1013.40 1013.34 1013.31
1010.68 1011.19 1011.80 1012.44 1013.05 1013.56 1013.95 1014.20 1014.35 1014.44 1014.52 1014.64 1014.82 1015.06 1015.33 1015.59 1015.79 1015.93 1015.98 1015.95 1015.87 1015.77 1015.66 1015.56 1015.47 1015.36 1015.23 1015.07 1014.87 1014.66 1014.44 1014.26 1014.12 1014.03 1013.99 1013.97 1013.94 1013.89 1013.80 1013.69 1013.56 1013.44 1013.36
1010.89 1011.47 1012.12 1012.77 1013.37 1013.85 1014.20 1014.42 1014.55 1014.62 1014.71 1014.85 1015.04 1015.29 1015.57 1015.83 1016.04 1016.18 1016.23 1016.21 1016.14 1016.04 1015.94 1015.84 1015.73 1015.61 1015.47 1015.29 1015.09 1014.88 1014.69 1014.53 1014.44 1014.39 1014.38 1014.38 1014.37 1014.31 1014.20 1014.04 1013.86 1013.69 1013.55
1011.04 1011.67 1012.35 1013.00 1013.57 1014.02 1014.34 1014.54 1014.66 1014.74 1014.85 1015.01 1015.22 1015.49 1015.77 1016.02 1016.23 1016.36 1016.41 1016.39 1016.33 1016.25 1016.16 1016.06 1015.96 1015.84 1015.69 1015.51 1015.32 1015.12 1014.96 1014.84 1014.79 1014.79 1014.83 1014.87 1014.87 1014.82 1014.70 1014.52 1014.29 1014.07 1013.87
1011.09 1011.76 1012.44 1013.08 1013.62 1014.04 1014.34 1014.54 1014.68 1014.80 1014.94 1015.13 1015.38 1015.65 1015.93 1016.18 1016.37 1016.48 1016.53 1016.52 1016.47 1016.41 1016.34 1016.26 1016.17 1016.06 1015.92 1015.75 1015.57 1015.39 1015.26 1015.18 1015.17 1015.22 1015.30 1015.37 1015.41 1015.37 1015.26 1015.06 1014.81 1014.54 1014.29
1011.02 1011.71 1012.39 1013.00 1013.52 1013.92 1014.23 1014.45 1014.63 1014.80 1015.00 1015.24 1015.51 1015.80 1016.08 1016.31 1016.48 1016.58 1016.62 1016.61 1016.58 1016.54 1016.50 1016.45 1016.39 1016.29 1016.17 1016.02 1015.85 1015.70 1015.59 1015.54 1015.56 1015.64 1015.75 1015.86 1015.92 1015.90 1015.80 1015.61 1015.35 1015.06 1014.77
1010.84 1011.53 1012.20 1012.79 1013.29 1013.70 1014.03 1014.30 1014.54 1014.78 1015.05 1015.34 1015.64 1015.94 1016.21 1016.43 1016.59 1016.68 1016.71 1016.72 1016.71 1016.69 1016.68 1016.66 1016.63 1016.56 1016.46 1016.32 1016.17 1016.04 1015.94 1015.91 1015.94 1016.03 1016.15 1016.28 1016.35 1016.36 1016.27 1016.09 1015.84 1015.54 1015.24
1010.55 1011.24 1011.89 1012.47 1012.98 1013.42 1013.79 1014.12 1014.44 1014.76 1015.10 1015.44 1015.77 1016.08 1016.34 1016.55 1016.69 1016.78 1016.82 1016.85 1016.86 1016.88 1016.90 1016.92 1016.91 1016.87 1016.78 1016.66 1016.53 1016.40 1016.31 1016.27 1016.30 1016.38 1016.49 1016.61 1016.68 1016.69 1016.61 1016.45 1016.21 1015.93 1015.62
1010.17 1010.86 1011.51 1012.11 1012.64 1013.12 1013.56 1013.97 1014.37 1014.77 1015.16 1015.54 1015.90 1016.21 1016.47 1016.66 1016.80 1016.89 1016.96 1017.01 1017.06 1017.11 1017.17 1017.21 1017.23 1017.21 1017.14 1017.04 1016.92 1016.79 1016.70 1016.65 1016.65 1016.69 1016.77 1016.85 1016.90 1016.89 1016.81 1016.66 1016.44 1016.18 1015.89
1009.72 1010.42 1011.09 1011.71 1012.29 1012.84 1013.36 1013.86 1014.34 1014.80 1015.24 1015.64 1016.00 1016.31 1016.55 1016.75 1016.89 1017.01 1017.10 1017.19 1017.28 1017.38 1017.46 1017.54 1017.57 1017.57 1017.52 1017.44 1017.32 1017.20 1017.10 1017.03 1016.99 1016.99 1017.01 1017.03 1017.03 1016.98 1016.89 1016.74 1016.53 1016.29 1016.03
1009.22 1009.93 1010.63 1011.30 1011.96 1012.58 1013.19 1013.77 1014.32 1014.84 1015.30 1015.71 1016.06 1016.35 1016.59 1016.78 1016.95 1017.09 1017.23 1017.37 1017.51 1017.64 1017.76 1017.86 1017.92 1017.93 1017.90 1017.83 1017.74 1017.63 1017.52 1017.43 1017.35 1017.29 1017.24 1017.18 1017.11 1017.01 1016.88 1016.71 1016.51 1016.28 1016.04
1008.65 1009.40 1010.14 1010.88 1011.62 1012.33 1013.03 1013.69 1014.30 1014.84 1015.31 1015.71 1016.04 1016.31 1016.54 1016.75 1016.94 1017.13 1017.32 1017.52 1017.70 1017.88 1018.03 1018.15 1018.23 1018.26 1018.25 1018.21 1018.14 1018.06 1017.96 1017.85 1017.74 1017.62 1017.50 1017.35 1017.19 1017.02 1016.82 1016.62 1016.41 1016.18 1015.95
1008.04 1008.82 1009.62 1010.43 1011.25 1012.05 1012.83 1013.56 1014.21 1014.77 1015.24 1015.61 1015.92 1016.17 1016.40 1016.63 1016.86 1017.10 1017.35 1017.60 1017.84 1018.06 1018.24 1018.38 1018.48 1018.53 1018.56 1018.56 1018.53 1018.48 1018.41 1018.31 1018.17 1018.00 1017.80 1017.56 1017.31 1017.04 1016.77 1016.52 1016.27 1016.03 1015.80
1007.40 1008.21 1009.05 1009.93 1010.83 1011.71 1012.57 1013.35 1014.03 1014.60 1015.06 1015.41 1015.70 1015.94 1016.18 1016.43 1016.70 1017.00 1017.31 1017.62 1017.91 1018.16 1018.36 1018.52 1018.64 1018.73 1018.80 1018.84 1018.87 1018.88 1018.84 1018.76 1018.62 1018.41 1018.13 1017.81 1017.45 1017.09 1016.74 1016.41 1016.12 1015.85 1015.60
1006.76 1007.58 1008.46 1009.39 1010.34 1011.29 1012.20 1013.02 1013.73 1014.31 1014.76 1015.10 1015.38 1015.63 1015.88 1016.16 1016.48 1016.83 1017.20 1017.56 1017.88 1018.16 1018.39 1018.57 1018.71 1018.83 1018.95 1019.05 1019.15 1019.22 1019.24 1019.19 1019.04 1018.80 1018.47 1018.06 1017.61 1017.15 1016.71 1016.31 1015.96 1015.65 1015.37
1006.18 1007.00 1007.88 1008.83 1009.81 1010.80 1011.74 1012.59 1013.32 1013.91 1014.36 1014.71 1014.99 1015.25 1015.54 1015.86 1016.22 1016.62 1017.04 1017.43 1017.78 1018.08 1018.31 1018.51 1018.67 1018.83 1018.99 1019.16 1019.33 1019.47 1019.55 1019.53 1019.40 1019.13 1018.75 1018.27 1017.74 1017.18 1016.66 1016.17 1015.76 1015.40 1015.08
1005.72 1006.50 1007.35 1008.29 1009.27 1010.26 1011.21 1012.08 1012.81 1013.41 1013.88 1014.24 1014.55 1014.85 1015.17 1015.54 1015.95 1016.39 1016.83 1017.25 1017.61 1017.91 1018.15 1018.35 1018.53 1018.72 1018.93 1019.16 1019.39 1019.59 1019.72 1019.74 1019.62 1019.34 1018.92 1018.38 1017.77 1017.14 1016.53 1015.98 1015.49 1015.08 1014.71
1005.43 1006.13 1006.93 1007.81 1008.75 1009.72 1010.65 1011.51 1012.25 1012.86 1013.35 1013.74 1014.09 1014.43 1014.80 1015.21 1015.66 1016.13 1016.59 1017.01 1017.37 1017.67 1017.90 1018.10 1018.29 1018.51 1018.76 1019.04 1019.32 1019.57 1019.74 1019.79 1019.67 1019.38 1018.92 1018.34 1017.67 1016.98 1016.30 1015.69 1015.15 1014.68 1014.26
Thickness
5758 5759 5758 5758 5757 5757 5756 5756 5756 5755 5754 5754 5753 5753 5752 5752 5751 5751 5750 5750 5749 5749 5749 5748 5748 5747 5746 5745 5744 5743 5743 5742 5741 5741 5740 5739 5738 5738 5737 5736 5736 5735 5734
5759 5756 5754 5754 5753 5753 5752 5751 5751 5751 5750 5750 5749 5749 5748 5748 5748 5747 5747 5746 5746 5745 5745 5745 5744 5743 5742 5741 5741 5740 5739 5739 5738 5737 5737 5736 5735 5734 5733 5733 5732 5732 5731
5755 5752 5750 5749 5749 5748 5747 5747 5746 5746 5746 5745 5745 5745 5744 5744 5744 5743 5743 5742 5742 5741 5741 5740 5740 5739 5739 5738 5737 5736 5736 5735 5735 5734 5734 5733 5732 5731 5730 5729 5728 5728 5727
5751 5748 5746 5745 5744 5743 5742 5742 5741 5741 5741 5741 5740 5740 5740 5740 5739 5739 5739 5738 5737 5737 5736 5736 5735 5735 5734 5734 5733 5733 5732 5732 5732 5732 5731 5730 5729 5728 5727 5726 5725 5724 5723
5745 5743 5741 5740 5739 5738 5737 5737 5736 5736 5736 5736 5736 5735 5735 5735 5735 5734 5734 5733 5733 5732 5732 5731 5731 5730 5730 5729 5729 5729 5729 5728 5728 5728 5728 5727 5726 5725 5723 5722 5721 5720 5719
5740 5737 5735 5734 5733 5732 5732 5731 5731 5731 5730 5730 5730 5730 5730 5730 5729 5729 5729 5728 5728 5728 5727 5727 5726 5726 5726 5725 5725 5724 5725 5724 5724 5724 5724 5724 5723 5722 5720 5719 5717 5717 5716
5734 5732 5729 5729 5728 5727 5726 5726 5725 5725 5725 5725 5724 5724 5724 5724 5724 5724 5723 5723 5723 5723 5723 5722 5722 5721 5721 5721 5720 5720 5720 5720 5720 5720 5720 5720 5719 5718 5716 5715 5714 5713 5712
5729 5726 5724 5723 5722 5721 5721 5720 5720 5719 5719 5719 5719 5719 5719 5718 5718 5718 5718 5718 5718 5717 5717 5717 5717 5717 5716 5716 5716 5716 5716 5716 5716 5716 5716 5716 5715 5714 5712 5711 5710 5709 5708
5723 5720 5718 5717 5716 5715 5715 5714 5713 5713 5713 5713 5713 5712 5712 5713 5712 5712 5712 5712 5712 5712 5712 5712 5712 5712 5711 5711 5711 5711 5711 5711 5712 5712 5712 5711 5710 5709 5708 5707 5705 5705 5704
5716 5715 5713 5712 5711 5710 5709 5708 5708 5707 5707 5707 5707 5707 5707 5707 5707 5707 5707 5707 5707 5707 5707 5707 5707 5706 5706 5707 5707 5707 5707 5707 5707 5707 5707 5706 5705 5704 5703 5702 5701 5700 5699
5708 5708 5708 5707 5706 5705 5704 5703 5702 5702 5702 5701 5701 5702 5702 5702 5702 5701 5701 5701 5701 5701 5701 5701 5702 5702 5702 5702 5702 5702 5702 5702 5702 5702 5702 5701 5700 5699 5698 5697 5696 5695 5695
5699 5701 5701 5701 5700 5699 5699 5698 5697 5697 5696 5696 5696 5696 5696 5696 5696 5696 5696 5696 5696 5696 5696 5696 5696 5696 5696 5696 5696 5697 5696 5697 5697 5697 5696 5695 5695 5694 5693 5692 5691 5690 5690
5694 5694 5694 5694 5694 5693 5693 5692 5692 5691 5691 5691 5691 5691 5691 5691 5691 5690 5690 5690 5690 5690 5690 5690 5691 5691 5691 5691 5691 5691 5691 5692 5691 5691 5690 5690 5689 5688 5687 5686 5685 5685 5684
5688 5687 5688 5688 5687 5687 5686 5686 5685 5685 5685 5685 5685 5685 5685 5684 5684 5684 5684 5684 5684 5684 5684 5684 5685 5685 5685 5686 5686 5686 5686 5686 5686 5685 5684 5684 5682 5681 5681 5680 5680 5679 5679
5683 5681 5681 5681 5680 5680 5680 5679 5679 5679 5679 5678 5678 5678 5678 5677 5677 5677 5677 5677 5677 5678 5678 5678 5678 5679 5679 5679 5679 5680 5679 5680 5680 5679 5678 5677 5676 5675 5674 5674 5673 5673 5672
5678 5676 5675 5675 5674 5673 5673 5673 5673 5672 5672 5672 5671 5671 5671 5671 5670 5670 5670 5670 5670 5670 5671 5671 5671 5671 5672 5672 5672 5673 5673 5673 5673 5673 5672 5671 5670 5668 5667 5667 5667 5666 5666
5673 5672 5670 5669 5668 5667 5666 5666 5666 5666 5665 5665 5665 5664 5664 5664 5664 5663 5662 5662 5663 5663 5663 5663 5663 5663 5663 5664 5664 5665 5665 5665 5665 5664 5664 5663 5662 5661 5660 5660 5659 5658 5658
5669 5666 5664 5664 5662 5661 5660 5660 5659 5659 5658 5658 5657 5657 5657 5657 5657 5656 5655 5655 5655 5655 5655 5654 5654 5653 5653 5653 5654 5656 5656 5656 5656 5656 5656 5655 5655 5654 5653 5652 5651 5650 5650
5663 5661 5658 5657 5655 5654 5653 5653 5652 5652 5651 5650 5650 5649 5650 5649 5649 5649 5647 5647 5647 5647 5646 5645 5645 5643 5643 5643 5644 5646 5647 5647 5647 5647 5647 5647 5646 5645 5644 5643 5643 5642 5642
5657 5654 5652 5650 5648 5647 5646 5645 5644 5643 5643 5643 5642 5642 5642 5642 5641 5640 5639 5639 5638 5637 5636 5635 5634 5634 5633 5633 5634 5635 5636 5637 5638 5638 5638 5638 5637 5637 5636 5635 5634 5633 5633
5649 5647 5645 5642 5641 5640 5638 5635 5634 5633 5634 5634 5634 5634 5634 5633 5633 5632 5631 5630 5629 5628 5626 5625 5624 5623 5622 5621 5620 5622 5625 5627 5628 5629 5628 5628 5628 5627 5626 5626 5625 5624 5624
5642 5639 5637 5635 5634 5633 5631 5629 5627 5626 5626 5626 5626 5626 5625 5625 5625 5624 5623 5621 5620 5618 5617 5615 5614 5611 5610 5609 5606 5605 5608 5612 5616 5618 5617 5617 5617 5617 5616 5616 5615 5615 5614
5633 5631 5631 5628 5626 5625 5623 5621 5620 5617 5616 5615 5615 5616 5617 5617 5616 5615 5614 5612 5611 5609 5607 5605 5603 5601 5598 5597 5594 5591 5590 5594 5599 5605 5606 5606 5605 5605 5604 5604 5605 5604 5603
5624 5623 5621 5620 5618 5617 5615 5613 5611 5608 5606 5607 5608 5607 5608 5608 5607 5606 5605 5603 5601 5600 5597 5595 5594 5591 5588 5585 5583 5582 5581 5581 5580 5586 5592 5593 5592 5593 5592 5592 5592 5592 5591
5615 5613 5612 5610 5609 5607 5606 5604 5602 5600 5599 5599 5599 5598 5598 5598 5597 5597 5595 5594 5592 5590 5588 5586 5583 5581 5578 5575 5573 5571 5569 5569 5569 5568 5574 5579 5579 5580 5580 5579 5579 5579 5578
5604 5602 5601 5599 5598 5597 5595 5594 5592 5591 5590 5589 5588 5587 5587 5587 5587 5587 5585 5584 5582 5580 5578 5575 5573 5571 5568 5566 5563 5561 5558 5556 5556 5555 5558 5563 5565 5568 5568 5568 5567 5567 5566